Regional Weather Roundup
Issued by NWS

Home | Current Version | Previous Version | Graphics & Text | Print | Product List | Glossary On
Versions: 1 2 3 4 5 6 7 8 9 10 11 12 13 14 15 16 17 18 19 20 21 22 23 24 25 26 27 28 29 30 31 32 33 34 35 36 37 38 39 40 41 42 43 44 45 46 47 48 49 50
000
ASUS43 KLOT 311408
RWRIL

ILLINOIS REGIONAL WEATHER ROUNDUP
NATIONAL WEATHER SERVICE CHICAGO/ROMEOVILLE IL
900 AM CDT FRI JUL 31 2015

NOTE: "FAIR" INDICATES FEW OR NO CLOUDS BELOW 12,000 FEET WITH NO
SIGNIFICANT WEATHER AND/OR OBSTRUCTIONS TO VISIBILITY.

* THESE STATIONS ARE NOT UNDER NWS QUALITY CONTROL. THEY ALSO MAY NOT
  REPORT WEATHER SUCH AS PRECIPITATION OR FOG.

ILZ001-002-007-009-015-016-024-311500-
NORTHWEST ILLINOIS

CITY           SKY/WX    TMP DP  RH WIND       PRES   REMARKS
MOLINE         SUNNY     78  65  63 NW13      30.08S HX  80
STERLING*      MOSUNNY   75  68  78 NW8       30.04R
SAVANNA*       SUNNY     76  65  70 NW7       30.06S
$$

ILZ003-004-008-010-011-017-018-311500-
NORTH CENTRAL ILLINOIS

CITY           SKY/WX    TMP DP  RH WIND       PRES   REMARKS
ROCKFORD       MOSUNNY   77  64  64 NW9       30.05S
FREEPORT*      MOSUNNY   75  65  71 W9        30.07S
ROCHELLE*      MOSUNNY   74  67  79 W13       30.06S
DE KALB*       MOSUNNY   74  67  77 W9G20     30.05S
PERU*          SUNNY     75  67  75 W9        30.07S
$$

ILZ005-006-012>014-019>023-311500-
NORTHEAST ILLINOIS

CITY           SKY/WX    TMP DP  RH WIND       PRES   REMARKS
CHICAGO-OHARE  PTSUNNY   75  63  66 W12       30.01F
CHICAGO-MIDWAY MOSUNNY   76  62  62 SW10      30.01F
AURORA         MOSUNNY   76  67  73 W13       30.04F
LANSING*       CLOUDY    75  63  65 W8        30.04R
JOLIET*        MOSUNNY   77  69  77 W5        30.04S
WAUKEGAN       MOSUNNY   76  61  59 VRB5      29.99F
DUPAGE AIRPORT MOSUNNY   74  65  73 W9        30.03F
KANKAKEE*      SUNNY     77  69  75 W8        30.06S
WHEELING       PTSUNNY   77  60  55 W13G18    30.02F
MORRIS*        MOSUNNY   76  69  80 W10       30.04S
ROMEOVILLE*    PTSUNNY   73  65  77 W6        30.04F
NORTHERLY ISL    N/A     76  59  55 W3          N/A
$$

LMZ740>746-311500-
SOUTHERN LAKE MICHIGAN

STATION/POSITION SKY/WX   TEMP    WIND        PRES    VSBY  WAVE
                          AIR SEA DIR/SP/G                  HT/PER
                          (F)     (DEG/KT/KT) (MB)    (MI)  (FT/S)
HARRISON CRIB              75     270/ 15/ 17   N/A
BURNHAM HARBOR             77     220/  7/ 12   N/A
CALUMET HARBOR             75     230/  5/ 10   N/A
BURNS HARBOR               74     240/  8/ 11 1017.3S
MICHIGAN CITY              73     210/ 11/ 13   N/A
MICHIGAN CITY 6N           74 73  260/ 12/ 16   N/A           2/ 4
ST. JOSEPH                 73 74  260/ 12/ 12   N/A           2/ 4
$$

ILZ025>027-034>036-040-047-049-050-058-095>099-311500-
WEST-CENTRAL ILLINOIS

CITY           SKY/WX    TMP DP  RH WIND       PRES   REMARKS
QUINCY         SUNNY     78  65  63 W8        30.13S HX  80
GALESBURG*     SUNNY     76  67  74 W9        30.11S
MACOMB*        SUNNY     76  67  75 W9        30.13S
JACKSONVILLE*  SUNNY     79  69  71 W6        30.12S HX  82
PITTSFIELD*    SUNNY     78  65  62 W9        30.14S HX  80
$$

ILZ028>032-037-038-041>044-048-051>054-059>061-311500-
CENTRAL ILLINOIS

CITY           SKY/WX    TMP DP  RH WIND       PRES   REMARKS
PONTIAC        SUNNY     77  72  84 W6        30.08S
BLOOMINGTON    SUNNY     77  68  73 W9        30.11S
DECATUR        SUNNY     80  66  62 NW7       30.11S HX  82
PEORIA         SUNNY     80  66  62 W7        30.09F HX  82
LACON*         SUNNY     76  66  69 W5        30.07R
LINCOLN*       SUNNY     79  67  66 CALM      30.10S HX  81
SPRINGFIELD    SUNNY     78  68  71 W6        30.11S HX  80
TAYLORVILLE    SUNNY     77  70  78 W5        30.11F
$$

ILZ033-039-045-046-055>057-062-063-311500-
EAST-CENTRAL ILLINOIS

CITY           SKY/WX    TMP DP  RH WIND       PRES   REMARKS
CHAMPAIGN      SUNNY     76  69  79 W8        30.10S
DANVILLE*      SUNNY     75  69  79 W6        30.06F HAZE
RANTOUL*       SUNNY     78  70  76 W6        30.09S HX  81
MATTOON        SUNNY     77  65  66 NW7       30.10S
PARIS*         SUNNY     75  70  84 W5        30.10F
$$

ILZ079-100>102-311500-
SOUTHWEST ILLINOIS

CITY           SKY/WX    TMP DP  RH WIND       PRES   REMARKS
ALTON          SUNNY     77  64  65 W6        30.13S
BELLEVILLE     SUNNY     80  68  66 NW6       30.12S HX  83
CAHOKIA*       SUNNY     82  64  54 W3        30.13S HX  83
SPARTA*        SUNNY     76  68  74 NW5       30.14S
$$

ILZ064>066-069>071-074>076-080>082-084>086-088>090-092>094-311500-
SOUTH-CENTRAL ILLINOIS

CITY           SKY/WX    TMP DP  RH WIND       PRES   REMARKS
CARBONDALE     SUNNY     77  67  71 N8        30.13S
CAIRO*         SUNNY     78  69  73 N7        30.12S HX  81
EFFINGHAM*     SUNNY     78  63  59 NW6       30.12S HX  80
MARION         SUNNY     79  68  69 NW8       30.13S HX  81
MT. VERNON     SUNNY     79  66  65 N3        30.13S HX  81
CENTRALIA*     SUNNY     79  64  60 N8        30.12F HX  81
SALEM*         SUNNY     79  67  66 NW7       30.13S HX  81
METROPOLIS*    SUNNY     77  71  79 N5        30.12S
$$

ILZ067-068-072-073-078-083-087-091-311500-
SOUTHEAST ILLINOIS

CITY           SKY/WX    TMP DP  RH WIND       PRES   REMARKS
LAWRENCEVILLE  SUNNY     76  68  76 NW5       30.10S
FLORA*         SUNNY     77  66  68 N6        30.12S
FAIRFIELD*     SUNNY     77  67  72 N3        30.10F
HARRISBURG*    SUNNY     78  69  73 NW6       30.12F
ROBINSON*      SUNNY     76  68  76 NW3       30.11S
CARMI*         SUNNY     75  64  68 CALM      30.10F
$$

ABBREVIATIONS USED IN REMARKS
   TC - TEMPERATURE IN CELSIUS
  WCI - WIND CHILL INDEX
   HX - HEAT INDEX
  VSB - VISIBILITY
$$



USA.gov is the U.S. government's official web portal to all federal, state and local government web resources and services.